sat.trackr.live / text

‹ back to catalog

STARLINK-35331

NORAD 66468 · 2025-262N

PAYLOAD ACTIVE UNKNOWN

§ Identity

Operator
Country
US
Launch date
2025-11-15
Launch site
AFETR
Launch vehicle
Mass (kg)
RCS (m²)

Purposes: comms

External: N2YO · Heavens-Above · Gunter

§ Orbital elements

Epoch: 2026-05-24T22:30:14.985216Z

Period
94.27 min
Inclination
42.9979°
Eccentricity
0.0001093
Mean motion
15.27577523 rev/d
Perigee alt
482.3 km
Apogee alt
483.8 km
Semi-major
6,861.2 km
B*
-1.2442e-4
RAAN
225.8994°
Arg perigee
270.7607°
Mean anomaly
89.3120°
Rev number
3,056

§ Raw data

STARLINK-353311 66468U 25262N   26144.93767344 -.00003684  00000+0 -12442-3 0  99952 66468  42.9979 225.8994 0001093 270.7607  89.3120 15.27577523 30564

JSON: /api/v1/satellites/66468 · /tle

For live sub-satellite position, see the globe view (requires WebGL).

§ Visibility from observer

Set your observer location to see the next 7 days of passes ≥ 10°. The values pass through the URL so the page stays shareable.

No JS? Fill the form by hand. The geolocation button needs JavaScript.